Year,Month,Day,Hour,Minute,Value (Times are PST for temperature in C)
2016,04,21,08,32,12.80
2016,04,21,08,33,12.80
2016,04,21,08,34,12.90
2016,04,21,08,35,12.90
2016,04,21,08,36,12.90
2016,04,21,08,37,12.90
2016,04,21,08,38,12.90
2016,04,21,08,39,12.90
2016,04,21,08,40,12.90
2016,04,21,08,41,12.90
2016,04,21,08,42,12.90
2016,04,21,08,43,12.90
2016,04,21,08,44,12.90
2016,04,21,08,45,12.80
2016,04,21,08,46,12.80
2016,04,21,08,47,12.80
2016,04,21,08,48,12.80
2016,04,21,08,49,12.80
2016,04,21,08,50,12.80
2016,04,21,08,51,12.80
2016,04,21,08,52,12.90
2016,04,21,08,53,12.90
2016,04,21,08,54,13.00
2016,04,21,08,55,13.00
2016,04,21,08,56,13.10
2016,04,21,08,57,13.10
2016,04,21,08,58,13.10
2016,04,21,08,59,13.10
2016,04,21,09,00,13.10
2016,04,21,09,01,13.10
2016,04,21,09,02,13.10
2016,04,21,09,03,13.10
2016,04,21,09,04,13.20
2016,04,21,09,05,13.20
2016,04,21,09,06,13.10
2016,04,21,09,07,13.10
2016,04,21,09,08,13.10
2016,04,21,09,09,13.10
2016,04,21,09,10,13.10
2016,04,21,09,11,13.10
2016,04,21,09,12,13.00
2016,04,21,09,13,13.00
2016,04,21,09,14,13.10
2016,04,21,09,15,13.20
2016,04,21,09,16,13.30
2016,04,21,09,17,13.30
2016,04,21,09,18,13.40
2016,04,21,09,19,13.40
2016,04,21,09,20,13.40
2016,04,21,09,21,13.40
2016,04,21,09,22,13.30
2016,04,21,09,23,13.30
2016,04,21,09,24,13.30
2016,04,21,09,25,13.30
2016,04,21,09,26,13.20
2016,04,21,09,27,13.20
2016,04,21,09,28,13.20
2016,04,21,09,29,13.20
2016,04,21,09,30,13.20
2016,04,21,09,31,13.20
2016,04,21,09,32,13.20
2016,04,21,09,33,13.30
2016,04,21,09,34,13.30
2016,04,21,09,35,13.30
2016,04,21,09,36,13.40
2016,04,21,09,37,13.40
2016,04,21,09,38,13.40
2016,04,21,09,39,13.40
2016,04,21,09,40,13.40
2016,04,21,09,41,13.50
2016,04,21,09,42,13.50
2016,04,21,09,43,13.60
2016,04,21,09,44,13.70
2016,04,21,09,45,13.70
2016,04,21,09,46,13.80
2016,04,21,09,47,13.90
2016,04,21,09,48,13.90
2016,04,21,09,49,14.00
2016,04,21,09,50,14.00
2016,04,21,09,51,14.10
2016,04,21,09,52,14.10
2016,04,21,09,53,14.20
2016,04,21,09,54,14.20
2016,04,21,09,55,14.30
2016,04,21,09,56,14.40
2016,04,21,09,57,14.40
2016,04,21,09,58,14.30
2016,04,21,09,59,14.30
2016,04,21,10,00,14.20
2016,04,21,10,01,14.20
2016,04,21,10,02,14.10
2016,04,21,10,03,14.00
2016,04,21,10,04,13.90
2016,04,21,10,05,13.80
2016,04,21,10,06,13.70
2016,04,21,10,07,13.70
2016,04,21,10,08,13.70
2016,04,21,10,09,13.70
2016,04,21,10,10,13.70
2016,04,21,10,11,13.70
2016,04,21,10,12,13.70
2016,04,21,10,13,13.70
2016,04,21,10,14,13.70
2016,04,21,10,15,13.70
2016,04,21,10,16,13.70
2016,04,21,10,17,13.70
2016,04,21,10,18,13.70
2016,04,21,10,19,13.70
2016,04,21,10,20,13.70
2016,04,21,10,21,13.70
2016,04,21,10,22,13.80
2016,04,21,10,23,13.80
2016,04,21,10,24,13.90
2016,04,21,10,25,13.90
2016,04,21,10,26,14.00
2016,04,21,10,27,14.00
2016,04,21,10,28,14.00
2016,04,21,10,29,14.10
2016,04,21,10,30,14.10
2016,04,21,10,31,14.20
2016,04,21,10,32,14.20
2016,04,21,10,33,14.20
2016,04,21,10,34,14.30
2016,04,21,10,35,14.30
2016,04,21,10,36,14.50
2016,04,21,10,37,14.60
2016,04,21,10,38,14.60
2016,04,21,10,39,14.70
2016,04,21,10,40,14.80
2016,04,21,10,41,14.80
2016,04,21,10,42,14.90
2016,04,21,10,43,14.90
2016,04,21,10,44,15.00
2016,04,21,10,45,15.00
2016,04,21,10,46,14.90
2016,04,21,10,47,15.00
2016,04,21,10,48,15.10
2016,04,21,10,49,15.20
2016,04,21,10,50,15.20
2016,04,21,10,51,15.30
2016,04,21,10,52,15.30
2016,04,21,10,53,15.30
2016,04,21,10,54,15.20
2016,04,21,10,55,15.20
2016,04,21,10,56,15.10
2016,04,21,10,57,15.10
2016,04,21,10,58,15.10
2016,04,21,10,59,15.10
2016,04,21,11,00,15.20
2016,04,21,11,01,15.20
2016,04,21,11,02,15.20
2016,04,21,11,03,15.20
2016,04,21,11,04,15.20
2016,04,21,11,05,15.30
2016,04,21,11,06,15.30
2016,04,21,11,07,15.30
2016,04,21,11,08,15.20
2016,04,21,11,09,15.20
2016,04,21,11,10,15.20
2016,04,21,11,11,15.20
2016,04,21,11,12,15.20
2016,04,21,11,13,15.20
2016,04,21,11,14,15.10
2016,04,21,11,15,15.10
2016,04,21,11,16,15.20
2016,04,21,11,17,15.30
2016,04,21,11,18,15.30
2016,04,21,11,19,15.30
2016,04,21,11,20,15.40
2016,04,21,11,21,15.50
2016,04,21,11,22,15.50
2016,04,21,11,23,15.60
2016,04,21,11,24,15.60
2016,04,21,11,25,15.70
2016,04,21,11,26,15.70
2016,04,21,11,27,15.70
2016,04,21,11,28,15.70
2016,04,21,11,29,15.60
2016,04,21,11,30,15.50
2016,04,21,11,31,15.40
2016,04,21,11,32,15.30
2016,04,21,11,33,15.30
2016,04,21,11,34,15.20
2016,04,21,11,35,15.30
2016,04,21,11,36,15.30
2016,04,21,11,37,15.30
2016,04,21,11,38,15.50
2016,04,21,11,39,15.50
2016,04,21,11,40,15.50
2016,04,21,11,41,15.50
2016,04,21,11,42,15.50
2016,04,21,11,43,15.50
2016,04,21,11,44,15.50
2016,04,21,11,45,15.50
2016,04,21,11,46,15.50
2016,04,21,11,47,15.50
2016,04,21,11,48,15.50
2016,04,21,11,49,15.50
2016,04,21,11,50,15.50
2016,04,21,11,51,15.50
2016,04,21,11,52,15.50
2016,04,21,11,53,15.50
2016,04,21,11,54,15.50
2016,04,21,11,55,15.50
2016,04,21,11,56,15.40
2016,04,21,11,57,15.30
2016,04,21,11,58,15.30
2016,04,21,11,59,15.40
2016,04,21,12,00,15.40
2016,04,21,12,01,15.40
2016,04,21,12,02,15.40
2016,04,21,12,03,15.50
2016,04,21,12,04,15.50
2016,04,21,12,05,15.40
2016,04,21,12,06,15.40
2016,04,21,12,07,15.40
2016,04,21,12,08,15.40
2016,04,21,12,09,15.40
2016,04,21,12,10,15.40
2016,04,21,12,11,15.40
2016,04,21,12,12,15.40
2016,04,21,12,13,15.30
2016,04,21,12,14,15.30
2016,04,21,12,15,15.40
2016,04,21,12,16,15.50
2016,04,21,12,17,15.50
2016,04,21,12,18,15.60
2016,04,21,12,19,15.60
2016,04,21,12,20,15.50
2016,04,21,12,21,15.50
2016,04,21,12,22,15.50
2016,04,21,12,23,15.50
2016,04,21,12,24,15.50
2016,04,21,12,25,15.50
2016,04,21,12,26,15.40
2016,04,21,12,27,15.30
2016,04,21,12,28,15.40
2016,04,21,12,29,15.50
2016,04,21,12,30,15.60
2016,04,21,12,31,15.70
2016,04,21,12,32,15.80
2016,04,21,12,33,15.80
2016,04,21,12,34,15.80
2016,04,21,12,35,15.80
2016,04,21,12,36,15.80
2016,04,21,12,37,15.80
2016,04,21,12,38,15.60
2016,04,21,12,39,15.50
2016,04,21,12,40,15.30
2016,04,21,12,41,15.10
2016,04,21,12,42,15.00
2016,04,21,12,43,15.00
2016,04,21,12,44,14.90
2016,04,21,12,45,14.90
2016,04,21,12,46,14.90
2016,04,21,12,47,15.00
2016,04,21,12,48,15.00
2016,04,21,12,49,14.90
2016,04,21,12,50,15.00
2016,04,21,12,51,15.00
2016,04,21,12,52,14.90
2016,04,21,12,53,14.90
2016,04,21,12,54,14.80
2016,04,21,12,55,14.90
2016,04,21,12,56,15.00
2016,04,21,12,57,15.00
2016,04,21,12,58,14.90
2016,04,21,12,59,14.80
2016,04,21,13,00,14.80
2016,04,21,13,01,14.70
2016,04,21,13,02,14.70
2016,04,21,13,03,14.70
2016,04,21,13,04,14.70
2016,04,21,13,05,14.70
2016,04,21,13,06,14.70
2016,04,21,13,07,14.70
2016,04,21,13,08,14.60
2016,04,21,13,09,14.60
2016,04,21,13,10,14.60
2016,04,21,13,11,14.60
2016,04,21,13,12,14.70
2016,04,21,13,13,14.80
2016,04,21,13,14,14.80
2016,04,21,13,15,14.80
2016,04,21,13,16,14.80
2016,04,21,13,17,14.80
2016,04,21,13,18,14.80
2016,04,21,13,19,14.70
2016,04,21,13,20,14.70
2016,04,21,13,21,14.70
2016,04,21,13,22,14.70
2016,04,21,13,23,14.70
2016,04,21,13,24,14.70
2016,04,21,13,25,14.70
2016,04,21,13,26,14.70
2016,04,21,13,27,14.70
2016,04,21,13,28,14.70
2016,04,21,13,29,14.80
2016,04,21,13,30,14.80
2016,04,21,13,31,14.80
2016,04,21,13,32,14.90
2016,04,21,13,33,14.90
2016,04,21,13,34,15.00
2016,04,21,13,35,14.90
2016,04,21,13,36,15.00
2016,04,21,13,37,15.00
2016,04,21,13,38,15.00
2016,04,21,13,39,15.10
2016,04,21,13,40,15.20
2016,04,21,13,41,15.30
2016,04,21,13,42,15.40
2016,04,21,13,43,15.40
2016,04,21,13,44,15.40
2016,04,21,13,45,15.30
2016,04,21,13,46,15.30
2016,04,21,13,47,15.30
2016,04,21,13,48,15.30
2016,04,21,13,49,15.30
2016,04,21,13,50,15.40
2016,04,21,13,51,15.50
2016,04,21,13,52,15.60
2016,04,21,13,53,15.70
2016,04,21,13,54,15.70
2016,04,21,13,55,15.70
2016,04,21,13,56,15.70
2016,04,21,13,57,15.70
2016,04,21,13,58,15.70
2016,04,21,13,59,15.60
2016,04,21,14,00,15.60
2016,04,21,14,01,15.60
2016,04,21,14,02,15.50
2016,04,21,14,03,15.30
2016,04,21,14,04,15.20
2016,04,21,14,05,15.10
2016,04,21,14,06,15.20
2016,04,21,14,07,15.20
2016,04,21,14,08,15.30
2016,04,21,14,09,15.30
2016,04,21,14,10,15.30
2016,04,21,14,11,15.40
2016,04,21,14,12,15.40
2016,04,21,14,13,15.40
2016,04,21,14,14,15.40
2016,04,21,14,15,15.50
2016,04,21,14,16,15.50
2016,04,21,14,17,15.60
2016,04,21,14,18,15.70
2016,04,21,14,19,15.80
2016,04,21,14,20,15.80
2016,04,21,14,21,15.80
2016,04,21,14,22,15.90
2016,04,21,14,23,15.90
2016,04,21,14,24,15.90
2016,04,21,14,25,15.80
2016,04,21,14,26,15.90
2016,04,21,14,27,16.00
2016,04,21,14,28,16.10
2016,04,21,14,29,16.10
2016,04,21,14,30,16.20
2016,04,21,14,31,16.30
2016,04,21,14,32,16.30
2016,04,21,14,33,16.40
2016,04,21,14,34,16.40
2016,04,21,14,35,16.50
2016,04,21,14,36,16.60
2016,04,21,14,37,16.70
2016,04,21,14,38,16.70
2016,04,21,14,39,16.70
2016,04,21,14,40,16.70
2016,04,21,14,41,16.60
2016,04,21,14,42,16.50
2016,04,21,14,43,16.40
2016,04,21,14,44,16.30
2016,04,21,14,45,16.20
2016,04,21,14,46,16.20
2016,04,21,14,47,16.10
2016,04,21,14,48,15.90
2016,04,21,14,49,15.80
2016,04,21,14,50,15.70
2016,04,21,14,51,15.50
2016,04,21,14,52,15.50
2016,04,21,14,53,15.40
2016,04,21,14,54,15.40
2016,04,21,14,55,15.30
2016,04,21,14,56,15.30
2016,04,21,14,57,15.20
2016,04,21,14,58,15.20
2016,04,21,14,59,15.20
2016,04,21,15,00,15.20
2016,04,21,15,01,15.20
2016,04,21,15,02,15.20
2016,04,21,15,03,15.30
2016,04,21,15,04,15.40
2016,04,21,15,05,15.40
2016,04,21,15,06,15.40
2016,04,21,15,07,15.30
2016,04,21,15,08,15.20
2016,04,21,15,09,15.20
2016,04,21,15,10,15.10
2016,04,21,15,11,15.10
2016,04,21,15,12,15.10
2016,04,21,15,13,15.20
2016,04,21,15,14,15.30
2016,04,21,15,15,15.40
2016,04,21,15,16,15.50
2016,04,21,15,17,15.50
2016,04,21,15,18,15.50
2016,04,21,15,19,15.50
2016,04,21,15,20,15.50
2016,04,21,15,21,15.50
2016,04,21,15,22,15.50
2016,04,21,15,23,15.50
2016,04,21,15,24,15.50
2016,04,21,15,25,15.50
2016,04,21,15,26,15.50
2016,04,21,15,27,15.50
2016,04,21,15,28,15.50
2016,04,21,15,29,15.50
2016,04,21,15,30,15.50
2016,04,21,15,31,15.50
2016,04,21,15,32,15.40
2016,04,21,15,33,15.30
2016,04,21,15,34,15.40
2016,04,21,15,35,15.50
2016,04,21,15,36,15.50
2016,04,21,15,37,15.50
2016,04,21,15,38,15.50
2016,04,21,15,39,15.50
2016,04,21,15,40,15.40
2016,04,21,15,41,15.40
2016,04,21,15,42,15.30
2016,04,21,15,43,15.30
2016,04,21,15,44,15.30
2016,04,21,15,45,15.40
2016,04,21,15,46,15.50
2016,04,21,15,47,15.60
2016,04,21,15,48,15.60
2016,04,21,15,49,15.60
2016,04,21,15,50,15.60
2016,04,21,15,51,15.70
2016,04,21,15,52,15.60
2016,04,21,15,53,15.70
2016,04,21,15,54,15.80
2016,04,21,15,55,15.80
2016,04,21,15,56,15.80
2016,04,21,15,57,15.80
2016,04,21,15,58,15.80
2016,04,21,15,59,15.80
2016,04,21,16,00,15.80
2016,04,21,16,01,15.80
2016,04,21,16,02,15.80
2016,04,21,16,03,15.80
2016,04,21,16,04,15.90
2016,04,21,16,05,15.90
2016,04,21,16,06,15.90
2016,04,21,16,07,15.90
2016,04,21,16,08,15.80
2016,04,21,16,09,15.80
2016,04,21,16,10,15.80
2016,04,21,16,11,15.80
2016,04,21,16,12,15.80
2016,04,21,16,13,15.80
2016,04,21,16,14,15.80
2016,04,21,16,15,15.80
2016,04,21,16,16,15.80
2016,04,21,16,17,15.90
2016,04,21,16,18,16.00
2016,04,21,16,19,16.10
2016,04,21,16,20,16.20
2016,04,21,16,21,16.30
2016,04,21,16,22,16.40
2016,04,21,16,23,16.40
2016,04,21,16,24,16.40
2016,04,21,16,25,16.50
2016,04,21,16,26,16.60
2016,04,21,16,27,16.70
2016,04,21,16,28,16.80
2016,04,21,16,29,16.80
2016,04,21,16,30,16.80
2016,04,21,16,31,16.70
2016,04,21,16,32,16.70
2016,04,21,16,33,16.70
2016,04,21,16,34,16.70
2016,04,21,16,35,16.70
2016,04,21,16,36,16.70
2016,04,21,16,37,16.60
2016,04,21,16,38,16.60
2016,04,21,16,39,16.60
2016,04,21,16,40,16.50
2016,04,21,16,41,16.40
2016,04,21,16,42,16.40
2016,04,21,16,43,16.40
2016,04,21,16,44,16.30
2016,04,21,16,45,16.30
2016,04,21,16,46,16.30
2016,04,21,16,47,16.30
2016,04,21,16,48,16.30
2016,04,21,16,49,16.40
2016,04,21,16,50,16.40
2016,04,21,16,51,16.40
2016,04,21,16,52,16.40
2016,04,21,16,53,16.40
2016,04,21,16,54,16.40
2016,04,21,16,55,16.30
2016,04,21,16,56,16.30
2016,04,21,16,57,16.30
2016,04,21,16,58,16.30
2016,04,21,16,59,16.30
2016,04,21,17,00,16.30
2016,04,21,17,01,16.30
2016,04,21,17,02,16.30
2016,04,21,17,03,16.30
2016,04,21,17,04,16.40
2016,04,21,17,05,16.40
2016,04,21,17,06,16.40
2016,04,21,17,07,16.40
2016,04,21,17,08,16.40
2016,04,21,17,09,16.40
2016,04,21,17,10,16.40
2016,04,21,17,11,16.40
2016,04,21,17,12,16.40
2016,04,21,17,13,16.40
2016,04,21,17,14,16.30
2016,04,21,17,15,16.30
2016,04,21,17,16,16.30
2016,04,21,17,17,16.30
2016,04,21,17,18,16.30
2016,04,21,17,19,16.30
2016,04,21,17,20,16.40
2016,04,21,17,21,16.40
2016,04,21,17,22,16.30
2016,04,21,17,23,16.20
2016,04,21,17,24,16.20
2016,04,21,17,25,16.10
2016,04,21,17,26,16.00
2016,04,21,17,27,15.80
2016,04,21,17,28,15.80
2016,04,21,17,29,15.60
2016,04,21,17,30,15.40
2016,04,21,17,31,15.30
2016,04,21,17,32,15.20
2016,04,21,17,33,15.10
2016,04,21,17,34,15.10
2016,04,21,17,35,15.10
2016,04,21,17,36,15.10
2016,04,21,17,37,15.20
2016,04,21,17,38,15.10
2016,04,21,17,39,15.10
2016,04,21,17,40,15.00
2016,04,21,17,41,15.00
2016,04,21,17,42,15.00
2016,04,21,17,43,15.10
2016,04,21,17,44,15.10
2016,04,21,17,45,15.10
2016,04,21,17,46,15.10
2016,04,21,17,47,15.10
2016,04,21,17,48,15.00
2016,04,21,17,49,15.00
2016,04,21,17,50,14.90
2016,04,21,17,51,14.80
2016,04,21,17,52,14.70
2016,04,21,17,53,14.70
2016,04,21,17,54,14.70
2016,04,21,17,55,14.70
2016,04,21,17,56,14.70
2016,04,21,17,57,14.80
2016,04,21,17,58,14.80
2016,04,21,17,59,14.80
2016,04,21,18,00,14.80
2016,04,21,18,01,14.90
2016,04,21,18,02,15.00
2016,04,21,18,03,15.00
2016,04,21,18,04,15.00
2016,04,21,18,05,15.10
2016,04,21,18,06,15.10
2016,04,21,18,07,15.20
2016,04,21,18,08,15.30
2016,04,21,18,09,15.30
2016,04,21,18,10,15.30
2016,04,21,18,11,15.30
2016,04,21,18,12,15.30
2016,04,21,18,13,15.30
2016,04,21,18,14,15.30
2016,04,21,18,15,15.30
2016,04,21,18,16,15.30
2016,04,21,18,17,15.30
2016,04,21,18,18,15.30
2016,04,21,18,19,15.30
2016,04,21,18,20,15.30
2016,04,21,18,21,15.30
2016,04,21,18,22,15.30
2016,04,21,18,23,15.30
2016,04,21,18,24,15.30
2016,04,21,18,25,15.30
2016,04,21,18,26,15.30
2016,04,21,18,27,15.40
2016,04,21,18,28,15.40
2016,04,21,18,29,15.50
2016,04,21,18,30,15.50
2016,04,21,18,31,15.50
2016,04,21,18,32,15.50
2016,04,21,18,33,15.50
2016,04,21,18,34,15.50
2016,04,21,18,35,15.50
2016,04,21,18,36,15.50
2016,04,21,18,37,15.50
2016,04,21,18,38,15.40
2016,04,21,18,39,15.40
2016,04,21,18,40,15.30
2016,04,21,18,41,15.30
2016,04,21,18,42,15.30
2016,04,21,18,43,15.30
2016,04,21,18,44,15.30
2016,04,21,18,45,15.30
2016,04,21,18,46,15.30
2016,04,21,18,47,15.30
2016,04,21,18,48,15.30
2016,04,21,18,49,15.30
2016,04,21,18,50,15.30
2016,04,21,18,51,15.30
2016,04,21,18,52,15.30
2016,04,21,18,53,15.20
2016,04,21,18,54,15.20
2016,04,21,18,55,15.20
2016,04,21,18,56,15.30
2016,04,21,18,57,15.30
2016,04,21,18,58,15.30
2016,04,21,18,59,15.30
2016,04,21,19,00,15.40
2016,04,21,19,01,15.40
2016,04,21,19,02,15.50
2016,04,21,19,03,15.50
2016,04,21,19,04,15.50
2016,04,21,19,05,15.40
2016,04,21,19,06,15.40
2016,04,21,19,07,15.30
2016,04,21,19,08,15.30
2016,04,21,19,09,15.20
2016,04,21,19,10,15.10
2016,04,21,19,11,15.10
2016,04,21,19,12,15.00
2016,04,21,19,13,15.00
2016,04,21,19,14,15.00
2016,04,21,19,15,15.00
2016,04,21,19,16,15.00
2016,04,21,19,17,15.00
2016,04,21,19,18,14.90
2016,04,21,19,19,14.90
2016,04,21,19,20,14.90
2016,04,21,19,21,14.90
2016,04,21,19,22,14.90
2016,04,21,19,23,14.80
2016,04,21,19,24,14.80
2016,04,21,19,25,14.80
2016,04,21,19,26,14.80
2016,04,21,19,27,14.80
2016,04,21,19,28,14.80
2016,04,21,19,29,14.80
2016,04,21,19,30,14.80
2016,04,21,19,31,14.80
2016,04,21,19,32,14.80
2016,04,21,19,33,14.90
2016,04,21,19,34,14.90
2016,04,21,19,35,14.90
2016,04,21,19,36,14.90
2016,04,21,19,37,14.90
2016,04,21,19,38,14.90
2016,04,21,19,39,14.90
2016,04,21,19,40,14.90
2016,04,21,19,41,14.80
2016,04,21,19,42,14.80
2016,04,21,19,43,14.80
2016,04,21,19,44,14.80
2016,04,21,19,45,14.80
2016,04,21,19,46,14.80
2016,04,21,19,47,14.80
2016,04,21,19,48,14.80
2016,04,21,19,49,14.70
2016,04,21,19,50,14.70
2016,04,21,19,51,14.60
2016,04,21,19,52,14.60
2016,04,21,19,53,14.50
2016,04,21,19,54,14.50
2016,04,21,19,55,14.50
2016,04,21,19,56,14.40
2016,04,21,19,57,14.40
2016,04,21,19,58,14.30
2016,04,21,19,59,14.20
2016,04,21,20,00,14.20
2016,04,21,20,01,14.20
2016,04,21,20,02,14.20
2016,04,21,20,03,14.20
2016,04,21,20,04,14.20
2016,04,21,20,05,14.20
2016,04,21,20,06,14.20
2016,04,21,20,07,14.20
2016,04,21,20,08,14.20
2016,04,21,20,09,14.20
2016,04,21,20,10,14.20
2016,04,21,20,11,14.20
2016,04,21,20,12,14.20
2016,04,21,20,13,14.20
2016,04,21,20,14,14.20
2016,04,21,20,15,14.20
2016,04,21,20,16,14.20
2016,04,21,20,17,14.20
2016,04,21,20,18,14.20
2016,04,21,20,19,14.20
2016,04,21,20,20,14.20
2016,04,21,20,21,14.20
2016,04,21,20,22,14.10
2016,04,21,20,23,14.10
2016,04,21,20,24,14.10
2016,04,21,20,25,14.00
2016,04,21,20,26,14.00
2016,04,21,20,27,14.00
2016,04,21,20,28,14.00
2016,04,21,20,29,13.90
2016,04,21,20,30,13.90
2016,04,21,20,31,13.90
2016,04,21,20,32,13.90
2016,04,21,20,33,13.90
2016,04,21,20,34,13.90
2016,04,21,20,35,13.90
2016,04,21,20,36,13.80
2016,04,21,20,37,13.80
2016,04,21,20,38,13.80
2016,04,21,20,39,13.80
2016,04,21,20,40,13.70
2016,04,21,20,41,13.70
2016,04,21,20,42,13.70
2016,04,21,20,43,13.70
2016,04,21,20,44,13.70
2016,04,21,20,45,13.70
2016,04,21,20,46,13.70
2016,04,21,20,47,13.70
2016,04,21,20,48,13.70
2016,04,21,20,49,13.70
2016,04,21,20,50,13.60
2016,04,21,20,51,13.60
2016,04,21,20,52,13.60
2016,04,21,20,53,13.60
2016,04,21,20,54,13.50
2016,04,21,20,55,13.50
2016,04,21,20,56,13.50
2016,04,21,20,57,13.50
2016,04,21,20,58,13.40
2016,04,21,20,59,13.40
2016,04,21,21,00,13.40
2016,04,21,21,01,13.40
2016,04,21,21,02,13.30
2016,04,21,21,03,13.30
2016,04,21,21,04,13.30
2016,04,21,21,05,13.30
2016,04,21,21,06,13.30
2016,04,21,21,07,13.30
2016,04,21,21,08,13.30
2016,04,21,21,09,13.30
2016,04,21,21,10,13.30
2016,04,21,21,11,13.30
2016,04,21,21,12,13.30
2016,04,21,21,13,13.30
2016,04,21,21,14,13.30
2016,04,21,21,15,13.20
2016,04,21,21,16,13.20
2016,04,21,21,17,13.20
2016,04,21,21,18,13.20
2016,04,21,21,19,13.20
2016,04,21,21,20,13.20
2016,04,21,21,21,13.20
2016,04,21,21,22,13.20
2016,04,21,21,23,13.20
2016,04,21,21,24,13.20
2016,04,21,21,25,13.20
2016,04,21,21,26,13.20
2016,04,21,21,27,13.20
2016,04,21,21,28,13.20
2016,04,21,21,29,13.20
2016,04,21,21,30,13.10
2016,04,21,21,31,13.10
2016,04,21,21,32,13.10
2016,04,21,21,33,13.10
2016,04,21,21,34,13.10
2016,04,21,21,35,13.10
2016,04,21,21,36,13.10
2016,04,21,21,37,13.00
2016,04,21,21,38,13.00
2016,04,21,21,39,13.00
2016,04,21,21,40,13.00
2016,04,21,21,41,13.00
2016,04,21,21,42,13.00
2016,04,21,21,43,13.00
2016,04,21,21,44,13.00
2016,04,21,21,45,13.00
2016,04,21,21,46,13.00
2016,04,21,21,47,13.00
2016,04,21,21,48,13.00
2016,04,21,21,49,13.00
2016,04,21,21,50,13.00
2016,04,21,21,51,12.90
2016,04,21,21,52,13.00
2016,04,21,21,53,12.90
2016,04,21,21,54,12.90
2016,04,21,21,55,12.90
2016,04,21,21,56,12.90
2016,04,21,21,57,12.90
2016,04,21,21,58,12.90
2016,04,21,21,59,12.90
2016,04,21,22,00,12.90
2016,04,21,22,01,12.90
2016,04,21,22,02,12.90
2016,04,21,22,03,12.90
2016,04,21,22,04,12.80
2016,04,21,22,05,12.80
2016,04,21,22,06,12.80
2016,04,21,22,07,12.80
2016,04,21,22,08,12.80
2016,04,21,22,09,12.80
2016,04,21,22,10,12.80
2016,04,21,22,11,12.80
2016,04,21,22,12,12.80
2016,04,21,22,13,12.90
2016,04,21,22,14,12.90
2016,04,21,22,15,12.90
2016,04,21,22,16,12.90
2016,04,21,22,17,12.90
2016,04,21,22,18,13.00
2016,04,21,22,19,13.00
2016,04,21,22,20,13.00
2016,04,21,22,21,13.00
2016,04,21,22,22,13.00
2016,04,21,22,23,13.00
2016,04,21,22,24,12.90
2016,04,21,22,25,12.90
2016,04,21,22,26,12.90
2016,04,21,22,27,12.90
2016,04,21,22,28,12.90
2016,04,21,22,29,12.90
2016,04,21,22,30,12.90
2016,04,21,22,31,12.90
2016,04,21,22,32,12.90
2016,04,21,22,33,12.90
2016,04,21,22,34,12.90
2016,04,21,22,35,12.90
2016,04,21,22,36,12.80
2016,04,21,22,37,12.80
2016,04,21,22,38,12.80
2016,04,21,22,39,12.70
2016,04,21,22,40,12.70
2016,04,21,22,41,12.60
2016,04,21,22,42,12.60
2016,04,21,22,43,12.60
2016,04,21,22,44,12.60
2016,04,21,22,45,12.50
2016,04,21,22,46,12.50
2016,04,21,22,47,12.50
2016,04,21,22,48,12.50
2016,04,21,22,49,12.50
2016,04,21,22,50,12.50
2016,04,21,22,51,12.50
2016,04,21,22,52,12.50
2016,04,21,22,53,12.50
2016,04,21,22,54,12.60
2016,04,21,22,55,12.60
2016,04,21,22,56,12.60
2016,04,21,22,57,12.60
2016,04,21,22,58,12.70
2016,04,21,22,59,12.70
2016,04,21,23,00,12.70
2016,04,21,23,01,12.70
2016,04,21,23,02,12.80
2016,04,21,23,03,12.80
2016,04,21,23,04,12.80
2016,04,21,23,05,12.80
2016,04,21,23,06,12.80
2016,04,21,23,07,12.80
2016,04,21,23,08,12.80
2016,04,21,23,09,12.80
2016,04,21,23,10,12.80
2016,04,21,23,11,12.80
2016,04,21,23,12,12.80
2016,04,21,23,13,12.80
2016,04,21,23,14,12.80
2016,04,21,23,15,12.80
2016,04,21,23,16,12.80
2016,04,21,23,17,12.80
2016,04,21,23,18,12.80
2016,04,21,23,19,12.80
2016,04,21,23,20,12.90
2016,04,21,23,21,12.90
2016,04,21,23,22,12.90
2016,04,21,23,23,12.90
2016,04,21,23,24,12.90
2016,04,21,23,25,12.90
2016,04,21,23,26,12.90
2016,04,21,23,27,12.90
2016,04,21,23,28,12.90
2016,04,21,23,29,12.90
2016,04,21,23,30,12.80
2016,04,21,23,31,12.80
2016,04,21,23,32,12.80
2016,04,21,23,33,12.80
2016,04,21,23,34,12.80
2016,04,21,23,35,12.80
2016,04,21,23,36,12.70
2016,04,21,23,37,12.70
2016,04,21,23,38,12.60
2016,04,21,23,39,12.60
2016,04,21,23,40,12.50
2016,04,21,23,41,12.50
2016,04,21,23,42,12.40
2016,04,21,23,43,12.30
2016,04,21,23,44,12.30
2016,04,21,23,45,12.20
2016,04,21,23,46,12.20
2016,04,21,23,47,12.10
2016,04,21,23,48,12.10
2016,04,21,23,49,12.10
2016,04,21,23,50,12.00
2016,04,21,23,51,12.00
2016,04,21,23,52,12.00
2016,04,21,23,53,11.90
2016,04,21,23,54,11.90
2016,04,21,23,55,11.90
2016,04,21,23,56,11.90
2016,04,21,23,57,11.80
2016,04,21,23,58,11.80
2016,04,21,23,59,11.80
